www.pogodaiklimat.ru

Погода и климат >> Архив погоды >> Австралия >> Wyndham Aero


ПОГОДА в Wyndham Aero

  • Прогноз погоды в Wyndham Aero
  • Монитор погоды в Wyndham Aero
  • Климат города

АРХИВ ПОГОДЫ в Wyndham Aero

Время (UTC), дата Ветер
(напр.,м/с)
 
Видим.   Явления Облачность Т
(С)
Тd
(С)
f
(%)
Тe
(С)
Тes
(С)
Комфортность P
(гПа)
Po
(гПа)
Тmin
(С)
Tmax
(С)
R
(мм)
R24
(мм)
S
(см)
16 13.08 Ю 1 н/о н/о +19.5 +10.8 57 +22 +22 комфорт 1013.9 1013.4
17 13.08 штиль 0 н/о н/о +18.8 +10.6 59 +19 +19 1013.7 1013.2
18 13.08 Ю 3 н/о н/о +18.0 +9.9 59 +18 +18 1013.7 1013.2
19 13.08 штиль 0 н/о н/о +17.5 +9.9 61 +18 +18 1013.6 1013.1
20 13.08 ЮВ 1 н/о н/о +16.2 +8.9 62 +17 +17 1013.8 1013.3
21 13.08 В 3 н/о н/о +18.5 +10.1 58 +19 +19 1014.4 1013.9
22 13.08 В 3 н/о н/о +17.3 +8.7 57 +17 +17 1015.0 1014.5
23 13.08 ЮВ 2 н/о н/о +23.6 +9.6 41 +25 +25 комфорт 1015.5 1015.0
00 14.08 В 4 н/о н/о +29.6 +6.3 23 +28 +28 жарко 1016.0 1015.5
01 14.08 В 4 н/о н/о +31.5 +5.1 19 +29 +29 жарко 1016.1 1015.6 +16.3
02 14.08 В 4 н/о н/о +33.5 +6.7 19 +32 +32 жарко 1015.5 1015.0
03 14.08 СВ 5 н/о н/о +34.6 +4.2 15 +32 +32 жарко 1014.5 1014.0
04 14.08 В 6 н/о н/о +35.7 +4.1 14 +33 +33 жарко 1012.8 1012.3
05 14.08 СВ 5 н/о н/о +35.7 +4.1 14 +33 +33 жарко 1012.1 1011.6
06 14.08 ЮВ 4 н/о н/о +35.5 +3.9 14 +33 +33 жарко 1011.4 1010.9
07 14.08 В 5 н/о н/о +35.6 +4.0 14 +33 +33 жарко 1011.2 1010.7
08 14.08 С 6 н/о н/о +33.3 +12.3 28 +34 +34 очень
жарко
1011.2 1010.7
09 14.08 С 5 н/о н/о +30.9 +13.2 34 +32 +32 жарко 1011.7 1011.2
10 14.08 С 6 н/о н/о +28.5 +16.4 48 +32 +32 душно 1012.3 1011.8
11 14.08 В 2 н/о н/о +27.2 +14.2 45 +29 +29 жарко 1013.1 1012.6
12 14.08 Ю 3 н/о н/о +24.8 +14.9 54 +28 +28 жарко 1013.8 1013.3
13 14.08 В 3 н/о н/о +23.4 +15.7 62 +28 +28 душно 1013.8 1013.3 +36.6
14 14.08 В 3 н/о н/о +22.0 +16.9 73 +26 +26 душно 1013.6 1013.1
15 14.08 В 2 н/о н/о +19.9 +12.4 62 +22 +22 комфорт 1013.5 1013.0
16 14.08 штиль 0 н/о н/о +19.1 +12.8 67 +20 +20 1013.2 1012.7
17 14.08 штиль 0 н/о н/о +18.7 +11.8 64 +19 +19 1013.0 1012.5
18 14.08 СЗ 2 н/о н/о +18.3 +13.2 72 +19 +19 1012.7 1012.2
19 14.08 З 2 н/о н/о +17.6 +11.4 67 +18 +18 1012.9 1012.4
20 14.08 З 2 н/о н/о +18.5 +13.1 71 +20 +20 1013.1 1012.6
21 14.08 З 2 н/о н/о +18.8 +13.6 72 +20 +20 1013.5 1013.0
22 14.08 С 2 н/о н/о +18.6 +13.0 70 +20 +20 1013.9 1013.4
23 14.08 СЗ 1 н/о н/о +23.2 +13.7 55 +27 +27 душно 1014.4 1013.9
00 15.08 ЮЗ 3 н/о н/о +26.2 +14.0 47 +28 +28 жарко 1014.7 1014.2
01 15.08 З 2 н/о н/о +28.3 +12.2 37 +29 +29 жарко 1014.5 1014.0 +17.3
02 15.08 ЮЗ 2 н/о н/о +31.0 +11.9 31 +31 +31 жарко 1013.8 1013.3
03 15.08 ЮЗ 3 н/о н/о +33.4 +9.4 23 +32 +32 жарко 1012.6 1012.1
04 15.08 СВ 3 н/о н/о +35.3 +6.6 17 +33 +33 жарко 1011.5 1011.0
05 15.08 С 3 н/о н/о +35.0 +6.3 17 +33 +33 жарко 1010.4 1009.9
06 15.08 З 1 н/о н/о +35.2 +7.3 18 +33 +33 жарко 1009.7 1009.2
07 15.08 СЗ 3 н/о н/о +34.9 +7.9 19 +33 +33 жарко 1009.3 1008.8
08 15.08 С 5 н/о н/о +33.7 +10.3 24 +33 +33 жарко 1009.5 1009.0
09 15.08 С 5 н/о н/о +31.5 +8.5 24 +30 +30 жарко 1009.9 1009.4
10 15.08 С 6 н/о н/о +29.4 +11.0 32 +30 +30 жарко 1010.5 1010.0
11 15.08 С 6 н/о н/о +29.1 +8.7 28 +29 +29 жарко 1010.9 1010.4
12 15.08 В 3 н/о н/о +27.2 +8.1 30 +27 +27 жарко 1011.5 1011.0
13 15.08 СЗ 2 н/о н/о +24.9 +9.2 37 +26 +26 жарко 1011.5 1011.0 +36.4
14 15.08 В 3 н/о н/о +23.1 +11.8 49 +26 +26 жарко 1011.7 1011.2
15 15.08 СЗ 2 н/о н/о +21.4 +11.1 52 +23 +23 комфорт 1011.5 1011.0
16 15.08 З 2 н/о н/о +21.0 +10.5 51 +24 +24 комфорт 1011.2 1010.7
17 15.08 З 2 н/о н/о +19.9 +11.1 57 +22 +22 комфорт 1010.9 1010.4
18 15.08 СЗ 2 н/о н/о +19.9 +11.4 58 +22 +22 комфорт 1010.6 1010.1
19 15.08 СЗ 1 н/о н/о +19.4 +12.7 65 +22 +22 комфорт 1010.7 1010.2
20 15.08 С 4 н/о н/о +19.4 +12.4 64 +21 +21 комфорт 1010.8 1010.3
21 15.08 З 1 н/о н/о +19.3 +12.6 65 +22 +22 комфорт 1011.3 1010.8
22 15.08 штиль 0 н/о н/о +17.8 +12.5 71 +18 +18 1011.8 1011.3
23 15.08 СЗ 2 н/о н/о +23.8 +15.3 59 +27 +27 жарко 1012.2 1011.7
00 16.08 З 2 н/о н/о +26.8 +14.5 47 +29 +29 жарко 1012.3 1011.8
01 16.08 ЮЗ 3 н/о н/о +29.9 +12.8 35 +31 +31 жарко 1012.3 1011.8 +17.6
02 16.08 З 4 н/о н/о +32.3 +11.5 28 +32 +32 жарко 1011.7 1011.2
03 16.08 СЗ 3 н/о н/о +34.7 +8.4 20 +33 +33 жарко 1010.8 1010.3
04 16.08 СЗ 4 н/о н/о +35.1 +7.2 18 +33 +33 жарко 1009.7 1009.2
05 16.08 З 4 н/о н/о +36.3 +5.5 15 +34 +34 очень
жарко
1008.8 1008.3
06 16.08 З 4 н/о н/о +36.2 +5.5 15 +34 +34 очень
жарко
1008.2 1007.7
07 16.08 СЗ 4 н/о н/о +36.3 +5.5 15 +34 +34 очень
жарко
1007.7 1007.2
08 16.08 З 2 н/о н/о +35.7 +5.1 15 +33 +33 жарко 1007.8 1007.3
09 16.08 С 6 н/о н/о +32.2 +10.3 26 +32 +32 жарко 1008.3 1007.8
10 16.08 С 7 н/о н/о +29.4 +12.3 35 +30 +30 жарко 1008.9 1008.4
11 16.08 С 6 н/о н/о +29.0 +12.4 36 +30 +30 жарко 1009.7 1009.2
12 16.08 С 5 н/о н/о +29.3 +10.9 32 +30 +30 жарко 1010.4 1009.9
13 16.08 штиль 0 н/о н/о +27.1 +12.3 40 +29 +29 жарко 1011.0 1010.5 +37.1
14 16.08 В 3 н/о н/о +24.1 +14.5 55 +27 +27 жарко 1011.3 1010.8
15 16.08 В 3 н/о н/о +21.9 +13.8 60 +25 +25 комфорт 1011.3 1010.8
16 16.08 В 3 н/о н/о +21.4 +14.3 64 +24 +24 комфорт 1011.0 1010.5
17 16.08 В 1 н/о н/о +20.1 +13.6 66 +24 +24 комфорт 1010.8 1010.3
18 16.08 штиль 0 н/о н/о +19.0 +14.1 73 +20 +20 1010.4 1009.9
19 16.08 штиль 0 н/о н/о +19.4 +13.3 68 +21 +21 комфорт 1010.3 1009.8
20 16.08 В 4 н/о н/о +18.7 +13.8 73 +20 +20 1010.4 1009.9
21 16.08 В 3 н/о н/о +18.6 +14.9 79 +20 +20 1011.0 1010.5
22 16.08 Ю 2 н/о н/о +18.7 +12.9 69 +20 +20 1011.5 1011.0
23 16.08 СЗ 2 н/о н/о +23.2 +15.0 60 +27 +27 душно 1011.9 1011.4
00 17.08 З 2 н/о н/о +26.6 +14.7 48 +29 +29 жарко 1012.1 1011.6
01 17.08 З 2 н/о н/о +29.0 +14.4 41 +31 +31 жарко 1012.2 1011.7 +17.3
02 17.08 З 4 н/о н/о +32.3 +12.5 30 +33 +33 жарко 1011.5 1011.0
03 17.08 ЮЗ 2 н/о н/о +34.1 +11.3 25 +34 +34 очень
жарко
1010.5 1010.0
04 17.08 Ю 3 н/о н/о +35.2 +8.9 20 +34 +34 очень
жарко
1009.4 1008.9
05 17.08 ЮЗ 3 н/о н/о +37.5 +8.3 17 +36 +36 очень
жарко
1008.4 1007.9
06 17.08 СЗ 3 н/о н/о +37.4 +7.3 16 +35 +35 очень
жарко
1007.7 1007.2
07 17.08 С 4 н/о н/о +37.6 +8.4 17 +36 +36 очень
жарко
1007.3 1006.8
08 17.08 С 5 н/о н/о +36.7 +7.7 17 +35 +35 очень
жарко
1007.5 1007.0
09 17.08 С 4 н/о н/о +34.2 +8.0 20 +33 +33 жарко 1008.1 1007.6
10 17.08 С 6 н/о н/о +31.2 +13.0 33 +32 +32 жарко 1008.9 1008.4
11 17.08 С 6 н/о н/о +30.4 +11.9 32 +31 +31 жарко 1009.7 1009.2
12 17.08 ЮЗ 3 н/о н/о +29.1 +9.8 30 +29 +29 жарко 1010.6 1010.1
13 17.08 З 2 н/о н/о +29.7 +11.7 33 +30 +30 жарко 1011.0 1010.5 +38.4
14 17.08 В 4 н/о н/о +25.0 +14.5 52 +28 +28 жарко 1011.1 1010.6
15 17.08 В 3 н/о н/о +23.6 +15.6 61 +27 +27 жарко 1011.3 1010.8
16 17.08 В 2 н/о н/о +22.7 +16.3 67 +27 +27 душно 1011.0 1010.5
17 17.08 ЮЗ 2 н/о н/о +21.8 +13.9 61 +25 +25 комфорт 1010.3 1009.8
18 17.08 штиль 0 н/о н/о +21.4 +14.6 65 +24 +24 комфорт 1010.2 1009.7
19 17.08 штиль 0 н/о н/о +20.8 +13.7 64 +23 +23 комфорт 1010.1 1009.6
20 17.08 В 4 н/о н/о +20.5 +16.1 76 +24 +24 комфорт 1010.4 1009.9
21 17.08 В 3 н/о н/о +20.2 +16.4 79 +23 +23 комфорт 1011.2 1010.7
22 17.08 СВ 2 н/о н/о +19.9 +16.5 81 +23 +23 комфорт 1012.0 1011.5
23 17.08 В 3 н/о н/о +23.9 +16.9 65 +28 +28 душно 1012.9 1012.4
00 18.08 В 4 н/о н/о +28.0 +16.6 50 +32 +32 душно 1013.4 1012.9
01 18.08 В 4 н/о н/о +31.1 +15.1 38 +33 +33 душно 1013.7 1013.2 +19.2
02 18.08 В 3 н/о н/о +33.7 +12.1 27 +34 +34 очень
жарко
1013.0 1012.5
03 18.08 СВ 3 н/о н/о +35.5 +13.1 26 +36 +36 очень
жарко
1012.3 1011.8
04 18.08 С 4 н/о н/о +35.7 +13.8 27 +36 +36 очень
жарко
1011.5 1011.0
05 18.08 СВ 3 н/о н/о +35.3 +14.6 29 +37 +37 очень
душно
1010.5 1010.0
06 18.08 С 5 н/о н/о +36.5 +16.1 30 +39 +39 очень
душно
1009.7 1009.2
07 18.08 СЗ 5 н/о н/о +35.6 +16.4 32 +38 +38 очень
душно
1009.5 1009.0
08 18.08 СЗ 5 н/о н/о +35.2 +15.5 31 +37 +37 очень
душно
1009.9 1009.4
09 18.08 С 5 н/о н/о +33.4 +16.3 36 +36 +36 очень
душно
1010.4 1009.9
10 18.08 С 4 н/о н/о +31.9 +16.2 39 +35 +35 очень
душно
1011.0 1010.5
11 18.08 штиль 0 н/о н/о +29.6 +15.0 41 +32 +32 душно 1011.8 1011.3
12 18.08 ЮЗ 4 н/о н/о +29.2 +17.7 50 +34 +34 очень
душно
1012.5 1012.0
13 18.08 ЮЗ 3 н/о н/о +27.9 +17.1 52 +32 +32 душно 1012.6 1012.1 +37.2
14 18.08 СЗ 2 н/о н/о +25.7 +16.3 56 +29 +29 душно 1012.4 1011.9
15 18.08 ЮВ 3 н/о н/о +25.0 +15.3 55 +28 +28 жарко 1012.5 1012.0
16 18.08 В 4 н/о н/о +24.5 +17.7 66 +29 +29 душно 1012.6 1012.1
17 18.08 В 5 н/о н/о +24.0 +18.4 71 +28 +28 душно 1012.8 1012.3
18 18.08 В 5 н/о н/о +23.9 +19.2 75 +29 +29 душно 1012.6 1012.1
19 18.08 СВ 2 н/о н/о +22.7 +18.5 77 +28 +28 душно 1012.7 1012.2
20 18.08 В 4 н/о н/о +22.1 +17.5 75 +27 +27 душно 1013.0 1012.5
21 18.08 В 3 н/о н/о +21.6 +16.8 74 +26 +26 душно 1013.7 1013.2
22 18.08 ЮВ 3 н/о н/о +21.0 +16.8 77 +25 +25 комфорт 1014.4 1013.9
23 18.08 В 3 н/о н/о +24.9 +18.8 69 +30 +30 душно 1015.1 1014.6
00 19.08 В 4 н/о н/о +28.0 +19.0 58 +33 +33 очень
душно
1015.5 1015.0
01 19.08 В 5 н/о н/о +31.4 +18.0 45 +36 +36 очень
душно
1015.7 1015.2 +21.0
02 19.08 В 4 н/о н/о +33.8 +15.7 34 +36 +36 очень
душно
1015.1 1014.6
03 19.08 В 5 н/о н/о +35.0 +14.3 29 +36 +36 очень
жарко
1014.0 1013.5
04 19.08 СВ 5 н/о н/о +35.9 +13.4 26 +36 +36 очень
жарко
1012.6 1012.1
05 19.08 СВ 6 н/о н/о +36.8 +10.2 20 +36 +36 очень
жарко
1011.5 1011.0
06 19.08 В 3 н/о н/о +37.3 +10.6 20 +36 +36 очень
жарко
1010.7 1010.2
07 19.08 В 6 н/о н/о +37.3 +10.6 20 +36 +36 очень
жарко
1010.3 1009.8
08 19.08 С 5 н/о н/о +35.1 +15.4 31 +37 +37 очень
душно
1010.4 1009.9
09 19.08 С 6 н/о н/о +32.6 +15.6 36 +35 +35 душно 1010.9 1010.4
10 19.08 С 4 н/о н/о +30.5 +14.6 38 +33 +33 душно 1011.7 1011.2
11 19.08 З 3 н/о н/о +30.0 +13.7 37 +32 +32 жарко 1012.4 1011.9
12 19.08 С 1 н/о н/о +26.8 +12.5 41 +28 +28 жарко 1013.0 1012.5
13 19.08 Ю 2 н/о н/о +26.8 +13.9 45 +29 +29 жарко 1013.3 1012.8 +38.3
14 19.08 В 3 н/о н/о +25.0 +13.5 49 +27 +27 жарко 1013.1 1012.6
15 19.08 В 2 н/о н/о +23.1 +13.6 55 +26 +26 жарко 1013.0 1012.5
16 19.08 штиль 0 н/о н/о +22.3 +13.4 57 +25 +25 комфорт 1012.8 1012.3
17 19.08 штиль 0 н/о н/о +21.4 +13.1 59 +24 +24 комфорт 1012.5 1012.0
18 19.08 З 2 н/о н/о +21.7 +13.3 59 +24 +24 комфорт 1012.7 1012.2
19 19.08 З 2 н/о н/о +20.7 +11.9 57 +23 +23 комфорт 1012.6 1012.1
20 19.08 З 3 н/о н/о +19.9 +12.2 61 +22 +22 комфорт 1012.9 1012.4
21 19.08 ЮЗ 3 н/о н/о +19.3 +12.8 66 +21 +21 комфорт 1013.4 1012.9
22 19.08 ЮЗ 2 н/о н/о +21.5 +13.7 61 +24 +24 комфорт 1014.0 1013.5
23 19.08 СЗ 2 н/о н/о +25.5 +14.0 49 +28 +28 жарко 1014.6 1014.1
00 20.08 ЮВ 3 н/о н/о +30.2 +8.0 25 +29 +29 жарко 1014.9 1014.4
01 20.08 В 7 н/о н/о +32.8 +5.4 18 +31 +31 жарко 1015.0 1014.5 +18.9
02 20.08 В 5 н/о н/о +34.6 +6.8 18 +33 +33 жарко 1014.6 1014.1
03 20.08 В 5 н/о н/о +36.0 +6.2 16 +34 +34 очень
жарко
1013.5 1013.0
04 20.08 СВ 5 н/о н/о +36.8 +5.9 15 +34 +34 очень
жарко
1012.3 1011.8
05 20.08 СВ 4 н/о н/о +37.3 +5.3 14 +35 +35 очень
жарко
1011.3 1010.8
06 20.08 С 3 н/о н/о +36.8 +4.9 14 +34 +34 очень
жарко
1010.4 1009.9
07 20.08 В 4 н/о н/о +37.2 +4.2 13 +34 +34 очень
жарко
1010.0 1009.5
08 20.08 С 7 н/о н/о +35.0 +10.1 22 +34 +34 очень
жарко
1010.0 1009.5
09 20.08 С 7 н/о н/о +32.7 +9.5 24 +32 +32 жарко 1010.4 1009.9
10 20.08 С 6 н/о н/о +30.9 +9.7 27 +30 +30 жарко 1010.9 1010.4
11 20.08 ЮЗ 3 н/о н/о +28.9 +10.6 32 +29 +29 жарко 1011.7 1011.2
12 20.08 Ю 5 н/о н/о +26.9 +11.0 37 +28 +28 жарко 1012.0 1011.5
13 20.08 СВ 2 н/о н/о +24.5 +10.0 40 +25 +25 комфорт 1012.2 1011.7 +38.1
14 20.08 ЮВ 4 н/о н/о +23.0 +10.1 44 +25 +25 комфорт 1012.2 1011.7

 

Местоположение метеостанции Wyndham Aero (Западная Австралия, Австралия): широта -15.50 долгота 128.15 высота над уровнем моря 4 м.

В архиве по умолчанию представлена погода в Wyndham Aero за последнюю неделю. Архивные данные за месяц целиком и за предыдущие месяцы, начиная с января 2011 года, Вы можете получить, выбрав интересующий диапазон дат из раскрывающегося списка и нажав кнопку "Ввод!".

Внимание! Время в таблицах - всемирное. Для получения местного времени необходимо прибавить поправку, которая в Wyndham Aero равна 8 ч.

Смотрите также архив погоды в соседних городах и на ближайших метеорологических станциях:

Погода в Kununurra (Западная Австралия, Австралия) (68 км)
Погода в Argyle Aero (Западная Австралия, Австралия) (130 км)
Погода в Port Keats Aero (Северная территория, Австралия) (203 км)
Погода в Kalumburu (Западная Австралия, Австралия) (209 км)
Погода в Truscott (Западная Австралия, Австралия) (247 км)
Погода в Troughton Island (Западная Австралия, Австралия) (290 км)
Погода в Manbulloo Csiro (Северная территория, Австралия) (291 км)
Погода в Halls Creek Airport (Западная Австралия, Австралия) (308 км)
Погода в Victoria River Downs (Северная территория, Австралия) (323 км)
Погода в Cape Don Lighthouse (Северная территория, Австралия) (375 км)

Пояснения к столбцам:

Ветер - указаны скорость ветра в м/с - средняя за 10 мин, порывы в срок и между сроками (в фигурных скобках) и направление, откуда дует ветер: С - северный, СВ - северо-восточный, В - восточный, ЮВ - юго-восточный, Ю - южный, ЮЗ - юго-западный, З - западный, СЗ - северо-западный.
Видимость - горизонтальная дальность видимости в метрах или километрах. При видимости от 1 до 10 км при отсутствии осадков обычно наблюдается дымка, при ухудшении видимости до 1 км и менее - туман. В сухую погоду видимость может ухудшаться дымом, пылью или мглою.
Явления - указаны атмосферные явления, наблюдавшиеся в срок или в последний час перед сроком; фигурными скобками обозначены явления, наблюдавшиеся между сроками (за 1-3 часа до срока); квадратными скобками обозначены град или гололедные отложения с указанием их диаметра в мм.
Облачность - указаны через наклонную черту общая и нижняя облачность в баллах и высота нижней границы облаков в метрах; квадратными скобками обозначены формы облаков: Ci - перистые, Cs - перисто-слоистые, Cc - перисто-кучевые, Ac - высококучевые, As - высокослоистые, Sc - слоисто-кучевые, Ns - слоисто-дождевые, Cu - кучевые, Cb - кучево-дождевые. Подробнее классификацию облаков см. в Атласе облаков (PDF).
T - Температура воздуха - температура, измеренная на высоте 2 м над землей.
Td - Температура точки росы - температура, при понижении до которой содержащийся в воздухе водяной пар достигнет насыщения.
f - Относительная влажность воздуха - влажноcть воздуха, измеренная на высоте 2 м над землей.
Te - Эффективная температура - температура, которую ощущает одетый по сезону человек в тени. Характеристика душности погоды. При расчете учитывается влияние влажности воздуха и скорости ветра на теплоощущения человека.
Tes - Эффективная температура на солнце - температура, которую ощущает человек, с поправкой на солнечный нагрев. Характеристика знойности погоды. Зависит от высоты солнца над горизонтом, облачности и скорости ветра. Ночью, в пасмурную погоду, а также при ветре 12 м/с и более поправка равна нулю.
P - Атмосферное давление - приведенное к уровню моря атмосферное давление.
Po - Атмосферное давление - измеренное на уровне метеостанции атмосферное давление.
Tmin - Минимальная температура - минимум температуры воздуха на высоте 2 м над землей.
Tmax - Максимальная температура - максимум температуры воздуха на высоте 2 м над землей.
R - Количество осадков - Количество выпавших осадков за период времени, мм. При наведении курсора мыши на число - период времени, за который выпало указанное количество осадков.
R24 - Количество осадков - Количество выпавших осадков за 24 часа, мм.
S - Снежный покров - Высота снежного покрова, см. При наведении курсора мыши на число - состояние снежного покрова и степень покрытия местности в баллах.